Palacios, TX

6:50 AM CST on January 29, 2015 (GMT -0600)
Palacios Municipal | Change Station
CLOSE
Current Station
Airport
Location: Palacios,
Elevation: 16 ft
Nearby Weather Stations
Active Advisory: Dense Fog Advisory

Elev 16 ft 28.73 °N, 96.25 °W | Updated 19 minutes ago

Fog
Fog
54 °F
Feels Like 54 °F
N
5
Wind Variable Wind from SE

Today
High -- | Low -- °F
--% Chance of Precip.
Yesterday
High -- | Low -- °F
Precip. -- in
7:14 AM 6:01 PM
Waxing Gibbous, 74% visible
Pressure 30.17 in
Visibility 0.5 miles
Clouds
Dew Point 53 °F
Humidity 97%
Rainfall 0.00 in
Snow Depth Not available.
UV Not available.
Pollen 7.20 out of 12
Air Quality Not available.
Flu Activity Not available.
SPECI KPSX 291231Z AUTO 13004KT 1/2SM FG VV004 12/12 A3017 RMK AO2 T01220117

More Conditions Fewer Conditions

Pressure 30.17 in
Visibility 0.5 miles
Clouds
Dew Point 53 °F
Humidity 97%
Rainfall 0.00 in
Snow Depth Not available.
UV Not available.
Pollen 7.20 out of 12
Air Quality Not available.
Flu Activity Not available.
SPECI KPSX 291231Z AUTO 13004KT 1/2SM FG VV004 12/12 A3017 RMK AO2 T01220117

More Conditions Fewer Conditions

10-Day Weather Forecast

Almanac

Astronomy

Jan. 29, 2015 Rise Set
Actual Time
Civil Twilight
Nautical Twilight
Astronomical Twilight
Moon
Length of Visible Light
Length of Day
Tomorrow will be .
, % of the Moon is Illuminated

Today's Extremes

State Highs State Lows

Community

WunderPhotos

Upload Photos

1,791,420 photos uploaded!

WunderBlogs® & News

Nearby

Air Quality

  Air Quality AQ Index Pollutant
Not available.

Snow Depth

Station Depth Elevation

Earthquake Activity

City Distance Mag. Time & Date
Minimum magnitude displayed is 2.5.

Coastal Water Temperatures

Place Temperature

Nearby Weather Stations